Regional Weather Roundup
Issued by NWS

Current Version | Previous Version | Text Only | Print | Product List | Glossary On
Versions: 1 2 3 4 5 6 7 8 9 10 11 12 13 14 15 16 17 18 19 20 21 22 23 24 25 26 27 28 29 30 31 32 33 34 35 36 37 38 39 40 41 42 43 44 45 46 47 48 49 50
000
ASUS46 KPQR 130710
RWROR

OREGON REGIONAL WEATHER ROUNDUP
NATIONAL WEATHER SERVICE PORTLAND OR
1100 PM PST FRI FEB 12 2016

NOTE: "FAIR" INDICATES FEW OR NO CLOUDS BELOW 12,000 FEET WITH
NO SIGNIFICANT WEATHER AND/OR OBSTRUCTIONS TO VISIBILITY.

ORZ001>013-130800-
NORTHWEST OREGON


CITY           SKY/WX    TMP DP  RH WIND       PRES   REMARKS
ASTORIA        LGT RAIN  51  48  89 SW12G20   30.23R
NEWPORT        PTCLDY    50  48  93 SW10      30.34R FOG
PORTLAND       PTCLDY    47  43  86 S8        30.28R
VANCOUVER WA   MOCLDY    49  43  80 S5        30.28R
SCAPPOOSE      PTCLDY    44  40  85 CALM      30.26R
HILLSBORO      PTCLDY    44  40  85 SW3       30.27R
AURORA         CLEAR     45  43  93 SW3       30.30R
MCMINNVILLE    CLEAR     45  41  86 CALM      30.30R
SALEM          PTCLDY    46  43  89 S8        30.30R
CORVALLIS      PTCLDY    46  43  87 E7        30.31S
EUGENE         CLEAR     42  40  92 S7        30.32S
$$

ORZ021-028-130800-
SOUTHWEST OREGON


CITY           SKY/WX    TMP DP  RH WIND       PRES   REMARKS
NORTH BEND     MOCLDY    46  46 100 S3        30.36S
BROOKINGS      CLEAR     48  47  96 E3        30.35F
ROSEBURG       CLOUDY    49  47  93 CALM      30.34S
SEXTON SUMMIT  CLEAR     37  34  89 SW6       30.30R WCI  32
MEDFORD        CLEAR     49  43  80 NW5       30.33R
$$

ORZ014>016-041-130800-
COLUMBIA GORGE


CITY           SKY/WX    TMP DP  RH WIND       PRES   REMARKS
TROUTDALE      CLOUDY    43  41  93 CALM      30.28S
THE DALLES     MOCLDY    46  42  86 NW6       30.23R
$$

ORZ029>031-041-044-049-050-061>064-502-503-505>511-130800-
EASTERN OREGON


CITY           SKY/WX    TMP DP  RH WIND       PRES   REMARKS
REDMOND        PTCLDY    32  28  85 CALM      30.23R
BEND           CLEAR     43  27  52 SW10      30.22R
PRINEVILLE     PTCLDY    36  32  87 CALM      30.23R
KLAMATH FALLS  MOCLDY    41  34  76 SW3       30.28R
LAKEVIEW       MOCLDY    39  34  81 S8        30.26S WCI  34
HERMISTON      CLOUDY    48  42  80 SW10      30.19R
PENDLETON      CLOUDY    44  40  85 S12       30.20S
JOHN DAY       CLOUDY    42  41  95 W9        30.20S
MEACHAM        LGT RAIN  36  34  92 CALM      30.18F
LA GRANDE      CLOUDY    41  34  75 NW6       30.20S
BAKER CITY     CLOUDY    31  30  96 SE3       30.20S FOG
BURNS          MOCLDY    28  26  92 W8        30.20R WCI  20
ROME             N/A     35  33  92 SW5       30.16S WCI  31
ONTARIO        MOCLDY    33  31  92 SW5       30.22F FOG     WCI  29
$$



USA.gov is the U.S. government's official web portal to all federal, state and local government web resources and services.